Header for Extended Forecast Station List Page

Search by: ID | Name | Date | Parm | Value | Avg | % Avg
Sort by: ID | Name | Date | Parm | Value | Avg | % Avg

Enter search or view all records.

Click on id for station plot
#IDNameDateParmValueAvg% Avg
0BULO3BULLY CREEK-BULLY CREEK DAM01-25-2021INFLOW (KAF)159160
1RIDI1WILLOW CREEK-RIRIE DAM01-25-2021INFLOW (KAF)223759
2MACI1BIG LOST-MACKAY RESERVOIR NEAR MACKAY01-25-2021INFLOW (KAF)313881
3MYKO3MCKAY CREEK-NEAR PILOT ROCK01-25-2021DISCHARGE (KAF)314174
4HWRI1BIG LOST-AT HOWELL RANCH NEAR CHILLY01-25-2021DISCHARGE (KAF)274658
5LWRI1LITTLE WOOD-LITTLE WOOD DAM01-25-2021INFLOW (KAF)364973
6BERO3MALHEUR-AGENCY VALLEY DAM01-25-2021INFLOW (KAF)335066
7DEDI1DEADWOOD-NEAR LOWMAN01-25-2021INFLOW (KAF)526087
8BUDW1BUMPING-BUMPING LAKE DAM01-25-2021INFLOW (KAF)7564117
9DLGM8CLARK FORK-AT DEER LODGE01-25-2021DISCHARGE (KAF)7570107
10ARDW1ENTIAT-NEAR ARDENVOIR01-25-2021DISCHARGE (KAF)7573103
11WRMO3MALHEUR-WARM SPRINGS DAM01-25-2021INFLOW (KAF)657686
12KADW1KACHESS-KACHESS DAM01-25-2021INFLOW (KAF)9881121
13GIBO3UMATILLA-NEAR GIBBON01-25-2021DISCHARGE (KAF)10283123
14KEDW1YAKIMA-KEECHELUS LAKE01-25-2021INFLOW (KAF)10784127
15HALI1BIG WOOD-AT HAILEY01-25-2021DISCHARGE (KAF)539855
16EASW1YAKIMA-AT EASTON01-25-2021DISCHARGE (KAF)9810098
17PIHI1PORTNEUF-AT POCATELLO01-25-2021DISCHARGE (KAF)6110061
18RCCM8ROCK CREEK-NEAR CLINTON01-25-2021DISCHARGE (KAF)113105108
19RILW1TIETON-RIMROCK LAKE NEAR RIMROCK01-25-2021INFLOW (KAF)11611799
20TNAW1TEANAWAY-BELOW FORKS01-25-2021DISCHARGE (KAF)151119127
21HOTI1BRUNEAU-NEAR HOT SPRINGS01-25-2021DISCHARGE (KAF)4912041
22SATI1ST MARIES-NEAR SANTA01-25-2021DISCHARGE (KAF)155140110
23IPDI1HENRYS FORK-ISLAND PARK DAM01-25-2021INFLOW (KAF)13815092
24MAGI1BIG WOOD-MAGIC DAM01-25-2021INFLOW (KAF)6715344
25TEAI1TETON-NEAR ST. ANTHONY01-25-2021DISCHARGE (KAF)14516389
26UMAO3UMATILLA-NEAR UMATILLA01-25-2021DISCHARGE (KAF)210176119
27STRM8ST. REGIS-NEAR ST. REGIS01-25-2021DISCHARGE (KAF)14417881
28CHEI1FALL RIVER-NEAR CHESTER01-25-2021DISCHARGE (KAF)196195100
29PDTO3UMATILLA-AT PENDLETON01-25-2021DISCHARGE (KAF)227198115
30TCHW1WALLA WALLA-NEAR TOUCHET01-25-2021DISCHARGE (KAF)220219100
31CLUW1CLE ELUM-CLE ELUM LAKE01-25-2021INFLOW (KAF)266223120
32CLFW1NACHES-NEAR CLIFFDEL01-25-2021DISCHARGE (KAF)254240106
33BIGI1BOISE-AT GLENWOOD BRIDGE01-25-2021DISCHARGE (KAF)317249127
34JLKW4SNAKE-JACKSON LAKE AT DAM01-25-2021INFLOW (KAF)22326185
35CSDI1NF PAYETTE-CASCADE DAM01-25-2021INFLOW (KAF)282279101
36NACW1NACHES-NEAR NACHES01-25-2021DISCHARGE (KAF)322289112
37HODO3HOOD-NEAR TUCKER BRIDGE01-25-2021DISCHARGE (KAF)315289109
38ARAI1SF BOISE-ANDERSON RANCH DAM01-25-2021INFLOW (KAF)26030685
39PATW1METHOW-NEAR PATEROS01-25-2021DISCHARGE (KAF)400344117
40OWYO3OWYHEE-OWYHEE DAM01-25-2021INFLOW (KAF)21034561
41UNDW1WHITE SALMON-NEAR UNDERWOOD01-25-2021DISCHARGE (KAF)358357100
42PARI1BOISE-NEAR PARMA01-25-2021DISCHARGE (KAF)397360110
43BONM8BLACKFOOT-NEAR BONNER01-25-2021DISCHARGE (KAF)36738396
44WSRI1WEISER-NEAR WEISER01-25-2021DISCHARGE (KAF)400385104
45CHDW1CHELAN-LAKE CHELAN DAM01-25-2021INFLOW (KAF)39242193
46PRTI1PRIEST-NEAR PRIEST RIVER01-25-2021DISCHARGE (KAF)554493112
47ANTI1HENRYS FORK-AT ST. ANTHONY01-25-2021DISCHARGE (KAF)45149691
48PITW1KLICKITAT-NEAR PITT01-25-2021DISCHARGE (KAF)47650994
49BITM8BITTERROOT-NEAR MISSOULA01-25-2021DISCHARGE (KAF)48552393
50UMTW1YAKIMA-AT UMTANUM01-25-2021DISCHARGE (KAF)554525106
51JKSW4SNAKE-NEAR JACKSON01-25-2021DISCHARGE (KAF)39553973
52MONO3NF JOHN DAY-AT MONUMENT01-25-2021DISCHARGE (KAF)48555987
53REXI1HENRYS FORK-AT REXBURG01-25-2021DISCHARGE (KAF)49057186
54WGCM8MF FLATHEAD-NEAR WEST GLACIER01-25-2021DISCHARGE (KAF)56161591
55PARW1YAKIMA-NEAR PARKER01-25-2021DISCHARGE (KAF)62262899
56FCFM8NF FLATHEAD-NEAR COLUMBIA FALLS01-25-2021DISCHARGE (KAF)57464389
57TONW1OKANOGAN-NEAR TONASKET01-25-2021DISCHARGE (KAF)62965896
58PESW1WENATCHEE-AT PESHASTIN01-25-2021DISCHARGE (KAF)711705101
59ALPW4SNAKE-NEAR ALPINE01-25-2021DISCHARGE (KAF)54673075
60ABOM8CLARK FORK-ABOVE MISSOULA01-25-2021DISCHARGE (KAF)66273590
61MILI1SNAKE-AT MILNER01-25-2021DISCHARGE (KAF)487516
62SERO3JOHN DAY-AT SERVICE CK01-25-2021DISCHARGE (KAF)66082180
63EMMI1PAYETTE-NEAR EMMETT01-25-2021DISCHARGE (KAF)67883481
64HHWM8SF FLATHEAD-HUNGRY HORSE DAM01-25-2021INFLOW (KAF)83388694
65LAUW1KETTLE-AT LAURIER01-25-2021DISCHARGE (KAF)74789184
66KIOW1YAKIMA-AT KIONA01-25-2021DISCHARGE (KAF)90098192
67TRYO3GRANDE RONDE-TROY01-25-2021DISCHARGE (KAF)11221011111
68PLDI1SF SNAKE-PALISADES DAM01-25-2021INFLOW (KAF)935120578
69SNAI1SNAKE-AT BLACKFOOT01-25-2021DISCHARGE (KAF)1112124090
70HEII1SNAKE-NEAR HEISE01-25-2021DISCHARGE (KAF)13161254105
71BFTI1SNAKE-NEAR BLACKFOOT01-25-2021DISCHARGE (KAF)1083126586
72BELM8CLARK FORK-BELOW MISSOULA01-25-2021DISCHARGE (KAF)1148127090
73SIFI1SNAKE-AB EAGLE ROCK NR IDAHO FALLS01-25-2021DISCHARGE (KAF)1375138799
74SHYI1SNAKE-NEAR SHELLEY01-25-2021DISCHARGE (KAF)1302141692
75MODO3DESCHUTES-AT MOODY NR BIGGS01-25-2021DISCHARGE (KAF)1468160491
76SRGM8CLARK FORK-AT ST REGIS01-25-2021DISCHARGE (KAF)1517177885
77LYDM8KOOTENAI-LIBBY DAM01-25-2021INFLOW (KAF)1708192189
78DWRI1NF CLEARWATER-DWORSHAK DAM01-25-2021INFLOW (KAF)20971945108
79AFRI1SNAKE-AMERICAN FALLS RESERVOIR01-25-2021INFLOW (KAF)1652196884
80CFMM8FLATHEAD-AT COLUMBIA FALLS01-25-2021DISCHARGE (KAF)2026214095
81LEOI1KOOTENAI-AT LEONIA01-25-2021DISCHARGE (KAF)30182402126
82WHBI1SALMON-AT WHITEBIRD01-25-2021DISCHARGE (KAF)1845245475
83COEI1COEUR D ALENE-COEUR D ALENE LAKE01-25-2021INFLOW (KAF)2425248398
84SWAI1SNAKE-BELOW SWAN FALLS01-25-2021DISCHARGE (KAF)1766274064
85KERM8FLATHEAD-SELI’Š KSANKA QLISPE’ DAM01-25-2021INFLOW (KAF)2317274684
86ORFI1CLEARWATER-AT OROFINO01-25-2021DISCHARGE (KAF)2630279194
87LLKW1SPOKANE-AT LONGLAKE01-25-2021INFLOW (KAF)2621294089
88SPDI1CLEARWATER-AT SPALDING01-25-2021DISCHARGE (KAF)47084717100
89WEII1SNAKE-AT WEISER01-25-2021DISCHARGE (KAF)3517503270
90BRNI1SNAKE-BROWNLEE DAM01-25-2021INFLOW (KAF)3979540774
91NOXM8CLARK FORK-NOXON RAPIDS DAM01-25-2021INFLOW (KAF)4234544778
92CABI1CLARK FORK-CABINET GORGE DAM01-25-2021INFLOW (KAF)4719570683
93ALFW1PEND OREILLE-ALBENI FALLS DAM01-25-2021INFLOW (KAF)5903697085
94ANAW1SNAKE-NEAR ANATONE01-25-2021DISCHARGE (KAF)6774986969
95LGDW1SNAKE-LOWER GRANITE DAM01-25-2021INFLOW (KAF)114821457879
96LGSW1SNAKE-LITTLE GOOSE DAM01-25-2021INFLOW (KAF)114821463278
97IHDW1SNAKE-ICE HARBOR DAM01-25-2021INFLOW (KAF)116861473379
98LMNW1SNAKE-LOWER MONUMENTAL DAM01-25-2021INFLOW (KAF)116861489378
99GCDW1COLUMBIA-GRAND COULEE DAM01-25-2021INFLOW (KAF)2348622410105
100WANW1COLUMBIA-WANAPUM DAM01-25-2021INFLOW (KAF)2584125339102
101CHJW1COLUMBIA-CHIEF JOSEPH DAM01-25-2021INFLOW (KAF)237342537094
102PRWW1COLUMBIA-PRIEST RAPIDS DAM01-25-2021INFLOW (KAF)2583925631101
103WELW1COLUMBIA-WELLS DAM01-25-2021INFLOW (KAF)247422634794
104RRHW1COLUMBIA-ROCKY REACH DAM01-25-2021INFLOW (KAF)251382672494
105MCDW1COLUMBIA-MCNARY DAM01-25-2021INFLOW (KAF)385534262990
106JDAO3COLUMBIA-JOHN DAY DAM01-25-2021INFLOW (KAF)406704508190
107TDAO3COLUMBIA-THE DALLES DAM01-25-2021INFLOW (KAF)411394645489
108BONO3COLUMBIA-BONNEVILLE DAM01-25-2021INFLOW (KAF)422574919486
109BFEI1KOOTENAI-AT BONNERS FERRY01-25-2021STAGE (FT)MMM
110DRMM8CLARK FORK-NR DRUMMOND01-25-2021DISCHARGE (KAF)158MM
111HOPI1PEND OREILLE-PEND OREILLE LAKE NR HOPE01-25-2021LAKE ELEVATION (FT)MMM
112SPOW1SPOKANE-AT SPOKANE01-25-2021DISCHARGE (KAF)2290MM
113SJMI1ST JOE-AT ST MARIES01-25-2021STAGE (FT)MMM
114CIBW1COLUMBIA-AT INTL BOUNDARY01-25-2021DISCHARGE (KAF)19978MM
115LUCI1BOISE-LUCKY PEAK DAM01-25-2021INFLOW (KAF)776MM